Wind_Speed
25 23 20 18 19 16 16 17 16 14 15 16 15 15 15 14 13 12 12 10 11 12 12 13 14 13 11 11 12 13 12 12 8 8 10 8 9 12 12 10 9 7 7
22 22 21 19 20 18 18 17 17 18 18 17 14 15 15 14 14 14 13 12 13 13 12 13 14 12 13 12 12 12 13 13 14 11 11 10 12 14 16 14 12 9 8
22 17 19 19 19 18 18 18 18 18 18 18 18 19 18 17 16 16 14 12 11 11 10 11 13 13 14 12 11 8 10 12 14 10 8 9 13 13 15 14 13 12 10
24 16 15 15 17 17 16 17 20 22 23 22 22 22 20 18 16 14 13 13 12 11 10 10 11 12 14 12 9 8 8 8 10 11 10 9 10 13 20 19 14 14 13
18 17 16 16 11 13 15 17 18 19 20 20 21 19 16 15 15 15 15 13 12 11 10 10 10 11 13 10 8 9 8 8 8 9 7 8 8 10 17 20 17 15 11
9 14 17 24 21 12 2 7 20 21 21 21 22 20 18 18 19 20 16 14 14 12 12 11 10 12 13 13 12 11 11 10 11 9 9 9 11 12 17 22 15 9 4
5 14 13 18 18 14 7 15 23 31 25 26 25 22 22 21 22 21 21 16 16 14 13 12 11 10 13 10 11 10 11 11 9 7 8 8 9 12 16 20 19 13 8
8 12 13 11 16 7 6 24 40 34 34 30 26 23 22 23 24 23 23 20 18 16 15 15 14 13 13 12 9 8 9 9 9 6 5 5 7 11 15 21 24 18 10
7 2 4 5 11 12 22 30 39 30 29 24 18 16 18 19 22 25 25 19 19 18 16 15 15 14 13 15 10 9 9 8 9 7 6 5 5 9 13 17 18 17 4
6 2 1 3 4 18 30 33 29 26 24 16 16 14 14 16 18 21 26 22 21 20 17 15 18 15 14 16 13 11 11 11 10 9 8 6 5 7 10 11 14 15 8
7 7 7 6 4 5 17 21 22 23 22 19 17 18 18 19 18 21 27 23 23 20 18 18 15 18 17 17 14 12 10 10 10 10 8 6 6 8 9 12 11 10 10
7 6 7 8 5 2 6 12 16 21 22 21 22 23 22 24 24 27 28 35 27 25 23 19 15 18 19 17 14 10 9 10 9 9 8 6 6 6 6 7 9 11 11
11 10 9 8 6 5 6 7 9 12 13 13 15 18 21 20 20 23 26 30 34 30 25 23 20 20 19 17 16 12 12 10 10 9 9 8 6 5 5 5 6 7 6
9 10 11 11 12 7 7 7 9 9 8 9 12 14 17 18 17 18 21 28 33 29 22 20 20 22 21 17 16 14 12 11 11 10 8 7 7 7 7 6 5 5 5
13 13 10 8 9 10 9 9 13 11 10 10 11 12 14 14 15 19 24 25 31 28 25 20 20 19 17 16 14 13 12 11 10 8 8 8 8 7 6 5 5 5 5
14 14 15 12 12 12 11 10 12 13 12 9 14 19 16 16 17 16 22 29 33 30 26 22 18 19 19 17 16 14 12 12 10 9 8 7 8 8 8 6 5 5 6
11 9 9 10 10 12 13 13 11 7 8 10 11 13 20 18 13 11 22 28 28 28 21 21 17 18 17 17 18 15 14 12 11 10 10 10 10 9 8 8 8 9 9
15 13 11 12 10 12 13 12 10 8 8 9 12 13 13 15 15 22 26 28 31 28 24 22 19 18 18 20 18 18 16 15 12 11 11 12 11 11 10 10 11 10 11
14 12 13 13 12 11 11 9 10 7 5 5 7 9 7 15 24 21 27 23 23 21 24 23 21 19 20 20 19 16 15 17 14 11 10 10 10 9 8 8 9 9 10
15 15 13 11 12 9 9 6 5 4 6 9 12 12 14 13 15 13 9 8 7 20 22 22 23 22 24 22 18 15 14 14 14 13 12 11 10 8 9 9 8 8 8
13 11 11 9 9 8 5 3 0 2 4 7 8 14 17 21 16 19 19 21 20 21 21 22 21 18 16 16 17 16 15 13 12 12 11 10 9 9 9 9 9 9 8
14 12 10 10 10 7 3 1 4 5 5 5 6 8 9 12 16 18 18 21 25 24 23 23 23 20 14 14 15 15 14 13 12 12 12 12 11 11 11 9 9 8 8
11 9 8 7 8 8 3 4 2 6 6 8 9 9 9 12 13 16 17 21 27 28 27 25 24 20 18 17 16 12 13 13 13 13 13 13 11 10 10 9 8 7 5
10 9 8 7 8 7 7 6 2 7 13 11 12 14 14 13 14 17 20 24 27 28 26 24 23 22 20 18 16 14 14 13 12 11 11 11 10 10 9 8 7 6 5
7 7 8 8 8 8 8 7 6 7 8 11 12 14 15 13 15 15 25 28 23 21 22 22 20 20 18 17 16 15 14 14 12 12 10 10 9 9 7 7 6 5 4
7 7 7 6 6 7 6 6 6 6 8 8 9 10 14 18 21 21 19 19 19 19 19 17 18 17 15 14 13 13 12 12 12 12 10 10 10 8 7 6 5 4 3
Wind_Direction
180 187 194 199 205 207 214 229 224 221 221 216 217 213 209 207 206 210 218 215 223 230 227 226 226 226 224 216 222 227 227 218 232 213 210 203 218 219 207 197 186 177 173
180 184 191 198 200 200 210 222 226 222 223 219 221 215 209 211 209 205 205 213 220 224 231 235 235 229 227 232 232 228 224 221 224 218 210 219 223 214 218 197 179 185 182
178 181 194 196 199 203 215 222 230 232 229 222 220 222 215 211 214 215 212 211 218 223 227 227 244 223 227 220 221 229 231 227 220 225 224 210 216 220 203 184 180 185 181
163 183 186 199 200 210 210 226 230 235 234 227 227 222 220 219 220 222 212 213 215 227 237 249 257 240 241 228 217 229 215 216 216 214 211 208 208 208 206 180 174 179 177
142 173 167 175 193 209 219 230 240 244 248 246 238 233 231 228 225 219 213 218 225 228 236 246 252 259 252 233 237 218 203 219 220 215 208 200 189 170 182 184 183 181 174
146 157 155 137 133 145 127 280 265 250 242 244 243 241 240 235 229 222 217 216 213 220 226 236 247 257 243 239 243 244 219 213 214 210 197 208 205 200 184 185 173 162 163
202 177 193 177 171 190 224 313 292 266 244 241 243 241 235 235 238 226 222 220 222 216 219 221 231 244 240 232 232 238 228 208 206 222 210 210 193 196 195 184 182 176 171
199 203 192 185 182 218 282 296 276 266 253 238 242 244 244 239 239 233 230 226 235 230 220 215 217 224 225 224 220 211 202 202 204 200 210 218 210 199 208 208 201 191 176
154 175 225 201 177 237 226 235 256 258 254 239 237 240 243 244 241 239 232 234 232 234 227 218 213 213 220 220 212 192 193 192 206 189 180 178 193 193 194 195 178 171 153
30 7 338 333 291 258 261 263 256 243 250 254 249 249 253 248 249 249 244 235 235 222 220 217 219 205 215 212 205 200 193 199 186 180 185 179 186 182 178 187 188 179 167
11 2 1 354 334 281 242 235 237 240 249 258 262 265 261 255 254 266 248 232 228 219 213 216 215 208 196 203 208 205 200 184 185 188 185 180 180 182 187 186 194 200 202
3 337 348 350 343 282 248 242 246 250 254 262 270 272 266 265 264 263 254 241 233 217 212 206 205 201 186 189 198 211 208 190 184 181 178 183 180 190 192 195 191 196 204
26 12 348 341 336 303 267 259 257 254 256 263 263 268 268 266 262 257 251 241 233 218 208 202 190 188 179 181 192 193 185 202 193 191 200 192 186 167 172 175 182 191 197
32 15 7 1 348 308 281 271 265 264 268 267 261 260 268 267 262 250 253 235 225 202 191 183 177 174 171 176 179 177 184 191 196 202 196 193 180 179 192 178 176 187 191
19 14 0 2 352 335 317 284 275 264 268 264 262 261 273 275 262 262 244 211 190 192 170 156 162 165 169 172 176 181 186 186 190 184 178 179 188 195 197 186 186 182 222
0 359 352 344 347 343 325 321 304 292 277 292 266 265 275 260 276 277 233 201 186 174 163 152 166 175 179 180 175 177 185 189 184 178 182 182 181 178 170 162 169 205 183
346 341 336 338 341 341 332 319 309 285 295 295 292 278 259 263 262 231 185 181 171 170 158 151 162 169 171 174 172 178 179 185 185 179 177 172 164 162 171 166 157 152 142
335 332 329 327 333 340 345 344 345 353 333 315 321 307 272 216 222 185 181 173 164 167 160 161 168 166 175 175 170 159 151 153 149 145 140 143 138 132 130 126 128 131 128
331 325 326 324 330 325 348 351 353 355 342 2 9 12 359 204 193 192 187 174 168 163 159 161 168 164 161 156 154 145 140 134 132 132 135 141 139 136 133 135 126 132 131
325 326 325 319 329 327 342 349 14 44 53 49 58 64 82 96 118 130 137 124 119 131 136 130 139 141 143 140 134 132 132 138 139 136 132 127 125 128 131 132 130 125 115
324 320 319 326 324 330 338 344 250 165 46 50 59 73 89 92 79 95 108 111 108 109 114 122 122 125 128 131 132 134 137 140 139 136 132 131 134 133 129 126 122 127 127
328 328 331 330 326 332 280 278 187 192 182 145 114 105 118 95 112 111 111 116 126 122 124 127 125 123 131 137 137 138 140 140 139 134 129 129 125 120 122 123 122 119 118
335 336 342 344 337 344 334 218 122 183 161 144 132 125 118 119 126 130 132 138 138 139 139 143 146 144 143 140 134 135 141 141 141 140 138 135 134 131 130 132 130 131 130
356 353 7 19 25 32 28 22 11 164 157 129 118 116 110 117 125 133 135 144 141 138 142 143 144 145 144 140 137 137 137 134 137 140 140 143 143 143 143 140 140 139 146
8 21 30 32 32 41 51 56 73 98 114 133 127 121 125 125 123 116 124 127 127 129 133 136 135 135 137 138 137 138 139 142 146 149 145 151 155 157 158 161 157 159 162
17 24 42 44 48 48 65 89 101 107 123 129 129 137 145 145 140 136 132 127 127 128 128 130 132 133 133 134 137 140 140 147 155 153 147 144 143 149 153 151 155 158 158
Height
737 744 752 759 764 765 767 771 771 771 771 773 773 773 774 774 774 777 780 783 785 788 787 788 790 791 791 792 794 796 798 799 799 800 798 800 803 806 808 808 810 812 812
734 738 745 752 756 759 762 766 768 766 766 769 771 771 771 773 773 772 774 778 780 783 785 787 787 788 787 789 790 790 791 793 794 796 797 798 801 802 804 805 806 808 811
729 734 741 747 752 755 758 762 765 765 764 764 765 767 767 766 769 769 771 773 776 778 779 781 782 783 784 784 785 786 788 789 789 790 793 795 797 799 801 803 804 807 808
716 733 739 744 745 750 754 759 761 761 762 761 761 761 762 762 764 767 769 770 772 775 777 778 779 778 779 780 781 783 783 785 785 785 788 790 792 794 797 799 802 805 808
712 729 731 734 743 746 749 755 759 761 765 766 763 762 763 763 763 764 765 767 770 771 772 775 776 776 777 777 779 780 780 782 784 784 784 786 788 790 792 794 800 803 805
728 731 731 726 734 742 746 750 755 756 758 761 762 763 763 763 761 761 763 765 765 767 769 771 773 773 775 776 777 779 778 778 781 781 780 782 784 786 788 792 796 801 805
738 738 735 727 728 733 733 736 747 753 752 753 755 757 757 758 758 759 759 763 763 761 764 766 768 771 771 773 775 777 776 776 777 780 780 779 780 782 786 790 792 796 799
733 735 730 726 727 728 727 734 741 747 748 747 749 752 753 753 753 755 757 758 761 760 759 759 761 764 768 770 773 775 776 775 776 778 780 781 781 781 782 785 789 793 796
733 735 733 728 724 733 733 730 734 741 743 743 744 746 747 749 748 751 753 754 754 757 757 757 758 760 762 765 770 772 775 776 776 776 778 779 779 780 782 784 787 792 795
729 731 731 726 724 728 725 727 734 737 738 740 739 740 740 740 742 744 747 748 749 749 753 755 755 755 758 763 766 770 771 774 775 776 777 778 780 780 780 783 785 788 791
727 727 725 724 723 722 725 728 729 730 732 734 734 733 733 733 734 736 739 741 742 744 747 750 752 751 753 759 762 767 770 772 773 775 777 778 780 782 782 781 784 787 789
728 727 724 722 720 720 722 723 723 725 726 726 726 725 725 726 725 725 726 730 733 737 740 744 747 749 749 755 761 763 768 772 773 774 775 777 779 781 783 785 784 784 786
728 727 725 721 720 721 720 718 719 721 721 720 719 718 717 717 716 714 715 720 727 730 733 736 740 745 748 753 758 761 765 771 771 773 774 775 777 780 782 784 785 786 786
731 728 725 721 719 719 719 718 718 717 715 714 715 714 712 710 708 707 707 711 719 724 726 730 735 741 746 751 755 758 763 767 768 769 770 775 777 778 780 781 784 786 786
729 729 728 723 720 719 716 714 714 712 711 711 711 709 706 703 700 699 703 705 709 715 720 725 733 739 745 749 753 756 760 763 767 767 768 770 774 777 779 780 782 784 784
728 727 726 724 722 718 715 710 710 708 706 705 704 704 701 699 699 696 695 699 705 709 715 720 730 735 739 745 749 753 757 760 761 763 766 768 771 773 775 777 779 781 782
732 731 728 726 722 718 712 710 706 703 700 700 699 696 695 695 695 695 695 700 702 708 712 717 727 731 736 742 745 750 752 756 758 760 762 764 767 771 773 774 776 778 780
731 726 724 721 717 716 711 708 706 701 699 697 695 690 687 687 691 696 698 701 704 706 710 715 723 725 732 738 742 745 750 754 757 759 761 764 767 769 773 775 775 779 781
730 726 723 719 713 712 708 705 705 705 703 698 694 690 684 687 689 696 698 697 698 704 707 713 717 724 731 736 741 745 750 752 756 759 762 765 767 769 772 774 777 779 780
728 723 722 719 714 710 707 707 706 706 704 700 694 696 689 691 692 697 701 703 702 700 708 710 719 726 731 737 742 746 750 754 757 759 762 765 766 769 773 775 777 778 780
726 723 719 714 713 710 704 707 707 707 705 703 702 698 698 698 700 699 702 703 709 712 716 720 724 731 736 740 745 748 752 756 758 759 761 764 767 770 772 775 777 778 780
722 719 715 712 711 707 707 709 707 707 710 710 707 704 707 707 707 705 708 712 707 716 719 723 729 734 742 746 747 750 753 756 759 761 762 766 769 771 772 775 776 778 780
722 718 714 711 711 709 706 706 707 706 709 709 708 708 709 710 710 711 713 717 719 722 726 730 735 738 742 744 745 751 754 756 759 761 764 766 769 771 773 775 776 779 780
720 719 715 712 712 709 710 706 705 704 707 710 711 711 711 713 713 714 715 719 720 724 730 734 737 739 742 745 747 749 752 756 760 762 765 767 770 772 773 775 776 779 781
724 721 716 713 713 711 711 711 709 709 711 713 713 713 713 718 720 722 722 723 727 732 734 738 741 743 744 746 747 750 753 756 760 762 765 767 769 771 773 775 775 778 778
722 719 717 718 717 716 714 713 712 714 715 715 717 716 716 719 721 725 728 730 733 735 737 741 743 745 747 749 750 752 754 757 761 762 765 766 768 771 773 774 775 776 777